Regional Weather Roundup
Issued by NWS Albany, NY

Home | Current Version | Previous Version | Graphics & Text | Print | Product List | Glossary Off
Versions: 1 2 3 4 5 6 7 8 9 10 11 12 13 14 15 16 17 18 19 20 21 22 23 24 25 26 27 28 29 30 31 32 33 34 35 36 37 38 39 40 41 42 43 44 45 46 47 48 49 50

000
ASUS41 KALY 312310
RWRALY

NEW YORK STATE HOURLY WEATHER ROUNDUP
NATIONAL WEATHER SERVICE ALBANY NY
700 PM EDT THU JUL 31 2014

NOTE: "FAIR" INDICATES FEW OR NO CLOUDS BELOW 12,000 FEET WITH NO
SIGNIFICANT WEATHER AND/OR NO OBSTRUCTIONS TO VISIBILITY.

NYZ032-033-038>043-046>054-057>066-NYZ062>081-010000-
EAST


CITY           SKY/WX    TMP DP  RH WIND       PRES   REMARKS
ALBANY         MOSUNNY   75  64  68 SE7       30.06S
GLENS FALLS    MOSUNNY   74  56  53 SW6       30.07R
POUGHKEEPSIE   SUNNY     78  61  55 CALM      30.07R
NEWBURGH       MOSUNNY   79  61  53 W8        30.10R
MONTGOMERY     MOSUNNY   78  59  51 SW8       30.08R
WHITE PLAINS   MOSUNNY   75  63  66 S8        30.11R
ISLIP          MOSUNNY   76  62  62 S12G20    30.11R
NEW YORK CITY  MOSUNNY   80  61  52 S10G24    30.09R
CENTRAL PARK   PTSUNNY   77  63  61 MISG      30.12R
$$

NYZ005>009-017-018-044>046-055-056-010000-
CENTRAL


CITY           SKY/WX    TMP DP  RH WIND       PRES   REMARKS
FULTON         MOSUNNY   69  60  73 CALM      30.06R
SYRACUSE       PTSUNNY   67  58  72 E6        30.07R
ROME           RAIN      63  60  90 N9        30.11R FOG
ELMIRA         MOSUNNY   77  55  46 SW7       30.07R
BINGHAMTON     SUNNY     71  55  56 SW7       30.11R
MONTICELLO     SUNNY     72  61  68 W5        30.14R
$$

NYZ026>034-041>043-010000-
NORTH


CITY           SKY/WX    TMP DP  RH WIND       PRES   REMARKS
WATERTOWN      SUNNY     72  52  49 SW9       30.04R
FORT DRUM      NOT AVBL
MASSENA        MOSUNNY   70  58  65 SW6       30.03R
SARANAC LAKE   SUNNY     65  55  70 SW6       30.07R
PLATTSBURGH    SUNNY     68  61  78 S3        30.04R
$$

NYZ001>004-010>016-019>021-010000-
WEST


CITY           SKY/WX    TMP DP  RH WIND       PRES   REMARKS
NIAGARA FALLS  MOSUNNY   71  53  52 SW13      30.04R
BUFFALO        MOSUNNY   71  49  45 SW14      30.05S
DUNKIRK        SUNNY     70  50  49 SW12      30.07S
JAMESTOWN      SUNNY     64  57  77 W8        30.11S
WELLSVILLE     SUNNY     71  51  49 SW6       30.13R
ROCHESTER      MOSUNNY   74  49  41 W9        30.05S
PENN YAN       CLOUDY    73  58  59 W6        30.08R
$$

             KEY
       WCI = WIND CHILL INDEX
       VSB = VISIBILITY
       HX  = HEAT INDEX
$$



USA.gov is the U.S. government's official web portal to all federal, state and local government web resources and services.